User: anonymous   Login
Location: Newark
(48.0000°N, 67.0000°E)
Time: 12:54:32
(UTC+00:00)
Language:

Transit 2A - Orbit

View from above orbital plane
View from above orbital plane
View from above satellite
View from above satellite

Ground track
Ground track

The orbit data is extracted from the following two-line orbital elements,

1    45U 60007A   20047.85347424 -.00000034  00000-0  18452-4 0  9994
2    45  66.6964 341.3715 0250606  42.8829 319.1514 14.33666441105271
Epoch (UTC): 16 February 2020 20:29:00
Eccentricity: 0.0250606
inclination: 66.6964°
perigee height: 600 km
apogee height: 959 km
right ascension of ascending node: 341.3715°
argument of perigee: 42.8829°
revolutions per day: 14.33666441
mean anomaly at epoch: 319.1514°
orbit number at epoch: 10527

The dashed part of the orbit path shows where the satellite is in the earth's shadow,  

DLR